This is the latest recevied weather packets stored in our database for station/object YO8SDE-8. If no packets are shown the sender has not sent any weather packets the latest 10 day(s).
| Time | Temp. | Humidity | Pressure | Rain* | Wind** | Luminosity | Snow |
|---|---|---|---|---|---|---|---|
| 1778126458 | 13.33° C | 67% | 1002.2 hPa | 0 mm | - | - | - |
| 1778126158 | 12.78° C | 67% | 1002.1 hPa | 0 mm | - | - | - |
| 1778125858 | 12.22° C | 67% | 1002.1 hPa | 0 mm | - | - | - |
| 1778125558 | 12.22° C | 67% | 1002.1 hPa | 0 mm | - | - | - |
| 1778125258 | 11.67° C | 67% | 1002.1 hPa | 0 mm | - | - | - |
| 1778124958 | 12.22° C | 67% | 1002 hPa | 0 mm | - | - | - |
| 1778124658 | 12.22° C | 67% | 1002 hPa | 0 mm | - | - | - |
| 1778124358 | 10.56° C | 66% | 1002 hPa | 0 mm | - | - | - |
| 1778124058 | 9.44° C | 68% | 1001.9 hPa | 0 mm | - | - | - |
| 1778123758 | 8.89° C | 71% | 1001.8 hPa | 0 mm | - | - | - |
| 1778123458 | 7.78° C | 69% | 1001.8 hPa | 0 mm | - | - | - |
| 1778123158 | 7.78° C | 68% | 1001.8 hPa | 0 mm | - | - | - |
| 1778122858 | 8.33° C | 68% | 1001.8 hPa | 0 mm | - | - | - |
| 1778122558 | 8.89° C | 68% | 1001.8 hPa | 0 mm | - | - | - |
| 1778122258 | 8.33° C | 68% | 1001.8 hPa | 0 mm | - | - | - |
| 1778121958 | 8.33° C | 68% | 1001.8 hPa | 0 mm | - | - | - |
| 1778121658 | 8.33° C | 69% | 1001.8 hPa | 0 mm | - | - | - |
| 1778121358 | 8.89° C | 69% | 1001.8 hPa | 0 mm | - | - | - |
| 1778121058 | 8.89° C | 70% | 1001.8 hPa | 0 mm | - | - | - |
| 1778120758 | 8.89° C | 70% | 1001.7 hPa | 0 mm | - | - | - |
| 1778120458 | 8.89° C | 70% | 1001.7 hPa | 0 mm | - | - | - |
| 1778120158 | 9.44° C | 71% | 1001.7 hPa | 0 mm | - | - | - |
| 1778119858 | 9.44° C | 71% | 1001.7 hPa | 0 mm | - | - | - |
| 1778119558 | 10° C | 71% | 1001.7 hPa | 0 mm | - | - | - |
| 1778119258 | 10.56° C | 71% | 1001.8 hPa | 0 mm | - | - | - |
* Rain latest hour (hover to see other rain measurements)
** Current wind speed in m/s (hover to see current wind gust speed)